Lid_Strength_Index
2 2 2 3 4 5 6 2 5 1 -0 5 5 6 5 8 5 4 5 5 5 6 6 7 7 7 6 4 4 6 5 6 8 7 5 5 5 7 7 9 10 8 9 11
1 2 3 4 5 5 3 4 4 1 1 7 6 5 5 5 5 5 5 6 5 5 6 7 6 6 4 4 5 5 5 7 9 8 7 5 7 6 6 6 7 9 12 11
1 2 3 4 5 5 3 4 6 4 3 3 5 6 6 6 4 5 4 5 5 5 6 5 7 6 5 4 4 3 4 6 8 10 8 7 7 7 6 7 9 8 13 12
1 2 3 3 4 5 4 3 6 4 6 5 5 5 5 6 6 4 4 5 5 6 7 6 7 6 5 4 4 4 5 7 7 7 7 7 7 7 7 7 7 9 11 10
2 2 2 3 4 5 3 5 5 4 5 5 5 7 6 6 6 5 6 6 5 5 6 6 7 5 5 6 4 5 5 7 6 7 7 6 7 7 7 7 6 7 7 7
2 2 3 3 4 5 2 1 2 4 7 5 6 6 6 6 5 5 4 5 5 6 5 4 4 4 4 4 5 5 6 7 7 9 7 7 9 7 7 6 6 6 8 7
2 3 3 3 3 4 2 1 2 5 7 6 6 6 6 6 6 6 4 4 5 4 3 3 3 4 4 4 4 4 6 6 7 9 8 11 7 5 6 6 6 5 5 5
2 3 3 3 3 3 2 0 2 4 7 5 6 6 6 5 5 5 5 4 3 3 4 6 7 7 6 6 5 5 4 6 8 10 10 8 7 6 6 6 7 5 5 5
2 3 3 4 3 3 2 0 0 3 5 6 4 5 5 6 6 5 5 3 2 3 5 7 10 10 8 8 7 5 5 5 7 8 10 12 7 5 4 4 8 4 4 5
2 3 3 3 4 3 3 1 1 2 5 3 4 5 6 4 5 6 5 4 5 3 7 8 9 9 8 10 9 9 7 7 8 8 11 8 7 5 4 9 8 4 4 4
2 2 3 3 4 4 3 0 0 2 4 3 2 3 4 4 5 7 6 5 5 5 7 8 9 8 11 9 8 8 8 9 9 8 11 14 6 5 7 5 3 3 3 3
2 2 2 3 4 4 4 2 1 1 3 3 1 1 2 2 2 4 4 5 5 4 6 6 6 10 7 8 10 6 9 7 9 9 10 8 6 5 3 3 3 3 3 3
2 2 2 2 4 4 4 2 0 1 3 3 3 3 1 1 2 2 5 4 3 4 3 6 6 7 7 10 8 8 6 5 7 7 7 5 4 3 3 3 3 3 3 3
3 2 2 3 4 5 5 2 0 1 3 6 4 1 2 0 1 2 2 3 3 3 3 5 6 7 4 7 6 7 5 6 7 6 5 5 4 4 3 3 3 3 3 3
3 3 2 3 4 5 4 2 1 0 3 6 5 2 1 1 1 2 3 4 4 4 5 6 7 5 5 5 5 7 5 6 7 8 5 5 5 3 3 3 3 3 3 3
3 3 3 3 4 5 3 3 1 1 2 4 7 2 3 2 1 2 2 4 3 4 5 5 4 4 5 7 8 5 4 4 4 5 3 4 3 3 2 3 3 3 3 3
4 4 4 4 4 4 3 4 3 5 1 4 6 5 3 2 2 2 3 2 3 4 5 5 5 6 5 7 9 8 5 4 4 3 3 4 3 4 3 3 3 3 2 2
4 4 4 4 4 4 4 2 6 4 3 3 7 6 5 2 4 5 2 4 4 4 5 4 5 6 6 8 5 7 4 3 3 3 3 3 3 3 3 2 3 3 3 3
4 4 4 2 3 2 2 3 4 3 4 6 5 7 7 3 4 3 4 3 6 4 6 5 5 6 8 5 5 4 4 3 3 3 3 3 3 3 3 3 3 4 4 3
4 4 3 5 1 3 2 2 3 4 4 6 6 4 6 3 4 5 5 5 6 8 6 4 6 7 4 3 3 3 3 2 2 4 4 4 4 4 4 3 3 3 3 2
3 4 5 1 3 1 3 6 6 5 7 5 5 5 6 3 6 6 4 6 6 8 7 7 8 8 5 3 3 2 2 2 2 2 2 2 3 3 3 3 3 3 2 2
4 4 4 2 3 5 8 8 6 7 8 5 6 5 4 4 2 5 5 7 6 9 4 7 9 6 3 3 3 3 2 2 3 2 2 2 2 2 2 3 3 2 2 2
4 6 6 6 6 12 10 11 9 8 6 5 5 6 4 4 4 5 6 8 8 4 7 9 7 5 4 3 3 3 2 2 2 2 2 2 2 2 2 2 2 2 2 2
7 8 13 8 9 8 7 7 8 5 4 5 5 6 6 5 6 6 8 7 6 9 10 9 6 6 4 3 3 3 3 3 3 3 3 3 3 3 2 2 2 2 2 2
7 9 12 8 5 5 5 5 5 4 2 4 5 5 6 7 7 6 7 10 10 9 9 7 6 4 3 3 3 3 3 3 3 2 3 3 2 2 2 2 2 2 2 2
8 9 8 6 6 6 5 5 6 4 4 3 4 7 9 9 7 8 9 10 10 8 7 5 4 5 4 3 3 3 2 2 3 2 2 2 2 2 2 2 2 2 2 2
9 10 7 6 5 6 6 5 5 2 4 7 7 9 9 7 9 9 7 8 8 6 5 4 4 4 4 3 3 3 2 2 2 2 2 2 2 2 2 3 2 2 1 1